User: anonymous   Login
Location: Mercogliano
(40.9167°N, 14.7333°E)
Time: 14:08:13
(UTC+00:00)
Language:

Meteor 2-9 Rocket - Orbit

View from above orbital plane
View from above orbital plane
View from above satellite
View from above satellite

Ground track
Ground track

The orbit data is extracted from the following two-line orbital elements,

1 13719U 82116B   21206.84242588  .00000152  00000-0  70417-4 0  9992
2 13719  81.2566 331.1978 0072043  35.6464 130.5712 14.14674172992395
Epoch (UTC): 25 July 2021 20:13:05
Eccentricity: 0.0072043
inclination: 81.2566°
perigee height: 791 km
apogee height: 895 km
right ascension of ascending node: 331.1978°
argument of perigee: 35.6464°
revolutions per day: 14.14674172
mean anomaly at epoch: 130.5712°
orbit number at epoch: 99239

The dashed part of the orbit path shows where the satellite is in the earth's shadow,  

DLR